Location: Burzi?i
(45.0869°N, 16.0577°E)
Time: 11:29:30
(UTC+00:00)

BREEZE-M DEB (TANK) - Pass Details

Date: 29 October 2020
Orbit: 315 x 13098 km, 49.6° (Epoch: 28 November)

Event Time Altitude Azimuth Distance (km) Brightness Sun altitude
Rises 17:29:24 0° 218° (SW) 2,669 6.9 -18.5°
Reaches altitude 10° 17:30:49 10° 213° (SSW) 2,073 6.2 -18.7°
Maximum altitude 17:35:04 55° 134° (SE) 1,386 4.5 -19.5°
Enters shadow 17:42:42 22° 67° (ENE) 4,100 6.7 -20.8°
